Location: Argonnex
(45.9500°N, 6.1333°E)
Time: 10:45:08
(UTC+00:00)

CZ-6A DEB - Pass Details

Date: 29 February 2024
Orbit: 827 x 907 km, 98.8° (Epoch: 12 April)

Event Time Altitude Azimuth Distance (km) Brightness Sun altitude
Rises 04:04:56 0° 32° (NNE) 3,425 ? -23.4°
Reaches altitude 10° 04:08:42 10° 58° (ENE) 2,467 ? -22.7°
Maximum altitude 04:11:20 14° 87° (E) 2,206 ? -22.3°
Drops below altitude 10° 04:13:57 10° 117° (ESE) 2,441 ? -21.8°
Sets 04:17:36 0° 143° (SE) 3,360 ? -21.2°
